BAW801 BIKF-EGLL

Flight info

Callsign BAW801
Flight time 2h 28m
Altitude 35000
Route M074F350 DCT OSKUM DCT RATSU/N0427F350 DCT BARKU DCT ELBUS UL612 LAKEY DCT NUGRA NUGRA2H
Aircraft A20N/M-SDGIJ1LRWXY/SB1

Departure

Time 2026-05-03 22:28
Airport Keflavik International Airport (BIKF)

Arrival

Time 2026-05-04 00:56
Airport London Heathrow Airport (EGLL)
Time Latitude Longitude Altitude Speed Heading
2026-05-03 21:41 63.99247 -22.61607 143 ft 0 kts 269°
2026-05-03 21:53 63.99247 -22.61608 143 ft 0 kts 269°
2026-05-03 22:14 63.99247 -22.61607 143 ft 0 kts 269°
2026-05-03 22:14 63.99248 -22.61580 143 ft 2 kts 269°
2026-05-03 22:14 63.99248 -22.61546 143 ft 2 kts 269°
2026-05-03 22:15 63.99248 -22.61511 143 ft 2 kts 269°
2026-05-03 22:15 63.99248 -22.61477 143 ft 2 kts 269°
2026-05-03 22:15 63.99251 -22.61447 143 ft 2 kts 223°
2026-05-03 22:15 63.99265 -22.61437 143 ft 2 kts 170°
2026-05-03 22:16 63.99279 -22.61439 143 ft 2 kts 183°
2026-05-03 22:16 63.99294 -22.61439 143 ft 2 kts 178°
2026-05-03 22:16 63.99306 -22.61439 143 ft 0 kts 180°
2026-05-03 22:19 63.99305 -22.61439 143 ft 1 kts 180°
2026-05-03 22:19 63.99276 -22.61439 143 ft 6 kts 179°
2026-05-03 22:19 63.99213 -22.61436 143 ft 10 kts 173°
2026-05-03 22:20 63.99173 -22.61313 143 ft 11 kts 86°
2026-05-03 22:20 63.99177 -22.61159 146 ft 8 kts 85°
2026-05-03 22:20 63.99175 -22.61012 146 ft 9 kts 112°
2026-05-03 22:20 63.99113 -22.60941 146 ft 12 kts 175°
2026-05-03 22:21 63.99013 -22.60941 146 ft 16 kts 181°
2026-05-03 22:21 63.98902 -22.60943 148 ft 15 kts 180°
2026-05-03 22:21 63.98796 -22.60943 151 ft 15 kts 180°
2026-05-03 22:21 63.98690 -22.60945 151 ft 15 kts 181°
2026-05-03 22:22 63.98578 -22.60947 151 ft 16 kts 179°
2026-05-03 22:22 63.98460 -22.60946 151 ft 17 kts 179°
2026-05-03 22:22 63.98344 -22.60943 153 ft 16 kts 179°
2026-05-03 22:22 63.98228 -22.60945 154 ft 16 kts 180°
2026-05-03 22:23 63.98103 -22.60948 154 ft 20 kts 180°
2026-05-03 22:23 63.97958 -22.60946 154 ft 21 kts 179°
2026-05-03 22:23 63.97805 -22.60948 151 ft 22 kts 180°
2026-05-03 22:23 63.97650 -22.60952 151 ft 22 kts 179°
2026-05-03 22:24 63.97488 -22.60950 147 ft 23 kts 179°
2026-05-03 22:24 63.97319 -22.60949 144 ft 24 kts 179°
2026-05-03 22:24 63.97157 -22.60947 140 ft 22 kts 179°
2026-05-03 22:24 63.96998 -22.60947 136 ft 21 kts 179°
2026-05-03 22:25 63.96843 -22.60948 130 ft 23 kts 180°
2026-05-03 22:25 63.96676 -22.60948 124 ft 24 kts 179°
2026-05-03 22:25 63.96544 -22.60949 119 ft 5 kts 179°
2026-05-03 22:25 63.96498 -22.60947 117 ft 6 kts 177°
2026-05-03 22:26 63.96464 -22.60865 117 ft 7 kts 104°
2026-05-03 22:26 63.96462 -22.60740 118 ft 8 kts 89°
2026-05-03 22:26 63.96464 -22.60601 119 ft 8 kts 79°
2026-05-03 22:26 63.96496 -22.60542 122 ft 5 kts 358°
2026-05-03 22:27 63.96530 -22.60548 123 ft 4 kts 354°
2026-05-03 22:27 63.96555 -22.60552 124 ft 3 kts 358°
2026-05-03 22:27 63.96576 -22.60554 124 ft 3 kts 358°
2026-05-03 22:27 63.96738 -22.60556 129 ft 57 kts 359°
2026-05-03 22:28 63.97414 -22.60554 152 ft 134 kts
2026-05-03 22:28 63.98537 -22.60560 339 ft 180 kts 359°
2026-05-03 22:28 63.99808 -22.60548 1300 ft 184 kts 359°
2026-05-03 22:28 64.01017 -22.60530 2519 ft 174 kts 359°
2026-05-03 22:29 64.02252 -22.60525 3172 ft 187 kts 358°
2026-05-03 22:29 64.03610 -22.60523 3769 ft 205 kts 360°
2026-05-03 22:29 64.05003 -22.59727 4546 ft 219 kts 29°
2026-05-03 22:29 64.06014 -22.57275 5603 ft 225 kts 57°
2026-05-03 22:30 64.06393 -22.53621 6278 ft 250 kts 85°
2026-05-03 22:30 64.06362 -22.49575 6904 ft 268 kts 87°
2026-05-03 22:30 64.06319 -22.45190 7535 ft 286 kts 88°
2026-05-03 22:30 64.05975 -22.40575 8340 ft 301 kts 105°
2026-05-03 22:31 64.05089 -22.36216 9195 ft 310 kts 116°
2026-05-03 22:31 64.04009 -22.31919 9988 ft 319 kts 119°
2026-05-03 22:31 64.02865 -22.27509 10646 ft 333 kts 120°
2026-05-03 22:31 64.01667 -22.22858 11130 ft 351 kts 119°
2026-05-03 22:32 64.00414 -22.17930 11573 ft 370 kts 119°
2026-05-03 22:32 63.99112 -22.12771 12163 ft 382 kts 119°
2026-05-03 22:32 63.97786 -22.07494 12910 ft 388 kts 119°
2026-05-03 22:32 63.96435 -22.02124 13649 ft 395 kts 120°
2026-05-03 22:33 63.95078 -21.96739 14343 ft 402 kts 120°
2026-05-03 22:33 63.93673 -21.91180 15040 ft 409 kts 120°
2026-05-03 22:33 63.92242 -21.85548 15754 ft 414 kts 120°
2026-05-03 22:33 63.90816 -21.79941 16534 ft 417 kts 120°
2026-05-03 22:34 63.89372 -21.74261 17226 ft 422 kts 120°
2026-05-03 22:34 63.87887 -21.68447 17868 ft 428 kts 120°
2026-05-03 22:34 63.86385 -21.62587 18496 ft 433 kts 120°
2026-05-03 22:34 63.84884 -21.56731 19089 ft 439 kts 121°
2026-05-03 22:35 63.83331 -21.50699 19680 ft 445 kts 120°
2026-05-03 22:35 63.81772 -21.44675 20269 ft 450 kts 120°
2026-05-03 22:35 63.80189 -21.38555 20848 ft 455 kts 120°
2026-05-03 22:35 63.78582 -21.32375 21399 ft 460 kts 121°
2026-05-03 22:36 63.77057 -21.26069 21912 ft 466 kts 114°
2026-05-03 22:36 63.75957 -21.19185 22419 ft 468 kts 102°
2026-05-03 22:36 63.75357 -21.11998 22975 ft 468 kts 94°
2026-05-03 22:36 63.74941 -21.04674 23484 ft 472 kts 92°
2026-05-03 22:37 63.74553 -20.97333 23941 ft 477 kts 92°
2026-05-03 22:37 63.74137 -20.89906 24450 ft 482 kts 93°
2026-05-03 22:37 63.73693 -20.82458 24948 ft 486 kts 93°
2026-05-03 22:37 63.73217 -20.74884 25429 ft 490 kts 94°
2026-05-03 22:38 63.72727 -20.67308 25918 ft 494 kts 94°
2026-05-03 22:38 63.72218 -20.59576 26394 ft 498 kts 94°
2026-05-03 22:38 63.71702 -20.51920 26825 ft 503 kts 96°
2026-05-03 22:38 63.70931 -20.44194 27229 ft 510 kts 104°
2026-05-03 22:39 63.69752 -20.36631 27659 ft 514 kts 112°
2026-05-03 22:39 63.68296 -20.29259 28091 ft 517 kts 115°
2026-05-03 22:39 63.66756 -20.21908 28493 ft 521 kts 116°
2026-05-03 22:39 63.65214 -20.14624 28877 ft 524 kts 116°
2026-05-03 22:40 63.63639 -20.07163 29231 ft 528 kts 115°
2026-05-03 22:40 63.62090 -19.99754 29580 ft 532 kts 115°
2026-05-03 22:40 63.60519 -19.92235 29978 ft 534 kts 115°
2026-05-03 22:40 63.58964 -19.84752 30516 ft 532 kts 115°
2026-05-03 22:41 63.57400 -19.77247 31068 ft 530 kts 115°
2026-05-03 22:41 63.55833 -19.69774 31590 ft 529 kts 116°
2026-05-03 22:41 63.54281 -19.62399 32062 ft 528 kts 115°
2026-05-03 22:41 63.52728 -19.55023 32557 ft 526 kts 115°
2026-05-03 22:42 63.51163 -19.47648 33021 ft 525 kts 114°
2026-05-03 22:42 63.49600 -19.40274 33462 ft 525 kts 114°
2026-05-03 22:42 63.48044 -19.32957 33837 ft 525 kts 115°
2026-05-03 22:42 63.46478 -19.25617 34146 ft 527 kts 115°
2026-05-03 22:43 63.44897 -19.18239 34434 ft 528 kts 116°
2026-05-03 22:43 63.43314 -19.10892 34718 ft 528 kts 116°
2026-05-03 22:43 63.41709 -19.03468 34901 ft 530 kts 115°
2026-05-03 22:44 63.38530 -18.88783 34918 ft 529 kts 115°
2026-05-03 22:44 63.35326 -18.74144 34936 ft 528 kts 116°
2026-05-03 22:45 63.32102 -18.59521 34940 ft 528 kts 115°
2026-05-03 22:45 63.28870 -18.44911 34957 ft 528 kts 116°
2026-05-03 22:46 63.25614 -18.30322 34937 ft 529 kts 116°
2026-05-03 22:46 63.22353 -18.15809 34944 ft 528 kts 116°
2026-05-03 22:47 63.19064 -18.01256 34949 ft 528 kts 116°
2026-05-03 22:47 63.15779 -17.86811 34948 ft 528 kts 116°
2026-05-03 22:48 63.12484 -17.72463 34926 ft 529 kts 116°
2026-05-03 22:48 63.09162 -17.58072 34943 ft 529 kts 116°
2026-05-03 22:49 63.05819 -17.43676 34936 ft 529 kts 116°
2026-05-03 22:49 63.02468 -17.29353 34948 ft 528 kts 117°
2026-05-03 22:50 62.99101 -17.15051 34936 ft 528 kts 117°
2026-05-03 22:50 62.95723 -17.00803 34940 ft 529 kts 117°
2026-05-03 22:51 62.92321 -16.86553 34946 ft 529 kts 116°
2026-05-03 22:51 62.88911 -16.72348 34950 ft 529 kts 116°
2026-05-03 22:52 62.85482 -16.58143 34946 ft 529 kts 116°
2026-05-03 22:52 62.82041 -16.44010 34882 ft 528 kts 116°
2026-05-03 22:53 62.78605 -16.29962 34905 ft 528 kts 117°
2026-05-03 22:53 62.75138 -16.15911 34929 ft 529 kts 117°
2026-05-03 22:54 62.71641 -16.01791 34970 ft 528 kts 118°
2026-05-03 22:54 62.68160 -15.87827 34953 ft 529 kts 118°
2026-05-03 22:55 62.64652 -15.73882 34942 ft 529 kts 117°
2026-05-03 22:55 62.61128 -15.59936 34939 ft 529 kts 118°
2026-05-03 22:56 62.57579 -15.45980 34937 ft 529 kts 117°
2026-05-03 22:56 62.54044 -15.32164 34936 ft 530 kts 118°
2026-05-03 22:57 62.50459 -15.18247 34942 ft 530 kts 118°
2026-05-03 22:57 62.46880 -15.04451 34953 ft 529 kts 118°
2026-05-03 22:58 62.43277 -14.90624 34943 ft 529 kts 118°
2026-05-03 22:58 62.39693 -14.76938 34934 ft 529 kts 118°
2026-05-03 22:59 62.36067 -14.63212 34903 ft 529 kts 118°
2026-05-03 22:59 62.32414 -14.49474 34914 ft 530 kts 118°
2026-05-03 23:00 62.28762 -14.35799 34915 ft 530 kts 118°
2026-05-03 23:00 62.25100 -14.22166 34932 ft 529 kts 119°
2026-05-03 23:01 62.21440 -14.08654 34927 ft 530 kts 119°
2026-05-03 23:01 62.17741 -13.95065 34930 ft 529 kts 119°
2026-05-03 23:02 62.14023 -13.81492 34925 ft 529 kts 118°
2026-05-03 23:02 62.10306 -13.68000 34920 ft 528 kts 118°
2026-05-03 23:03 62.06604 -13.54644 34907 ft 528 kts 118°
2026-05-03 23:03 62.02870 -13.41243 34943 ft 529 kts 118°
2026-05-03 23:04 61.99115 -13.27845 34919 ft 528 kts 120°
2026-05-03 23:04 61.95363 -13.14554 34911 ft 528 kts 120°
2026-05-03 23:05 61.91591 -13.01259 34908 ft 528 kts 119°
2026-05-03 23:05 61.87810 -12.87999 34913 ft 528 kts 119°
2026-05-03 23:06 61.84000 -12.74720 34914 ft 527 kts 119°
2026-05-03 23:06 61.80197 -12.61552 34922 ft 528 kts 119°
2026-05-03 23:07 61.76370 -12.48366 34911 ft 528 kts 119°
2026-05-03 23:07 61.72552 -12.35296 34913 ft 529 kts 120°
2026-05-03 23:08 61.68699 -12.22175 34914 ft 528 kts 120°
2026-05-03 23:08 61.64826 -12.09085 34916 ft 528 kts 121°
2026-05-03 23:09 61.60952 -11.96055 34917 ft 528 kts 121°
2026-05-03 23:09 61.57085 -11.83104 34909 ft 527 kts 121°
2026-05-03 23:10 61.53193 -11.70146 34905 ft 526 kts 121°
2026-05-03 23:10 61.49296 -11.57259 34905 ft 527 kts 121°
2026-05-03 23:11 61.45380 -11.44395 34905 ft 526 kts 120°
2026-05-03 23:11 61.41470 -11.31579 34901 ft 526 kts 121°
2026-05-03 23:12 61.37541 -11.18790 34909 ft 526 kts 121°
2026-05-03 23:12 61.33609 -11.06067 34907 ft 525 kts 121°
2026-05-03 23:13 61.29647 -10.93321 34906 ft 526 kts 121°
2026-05-03 23:13 61.25665 -10.80585 34902 ft 526 kts 121°
2026-05-03 23:14 61.21691 -10.67935 34899 ft 525 kts 121°
2026-05-03 23:14 61.17729 -10.55382 34896 ft 526 kts 121°
2026-05-03 23:15 61.13734 -10.42808 34890 ft 525 kts 121°
2026-05-03 23:15 61.09747 -10.30307 34878 ft 524 kts 122°
2026-05-03 23:16 61.05734 -10.17797 34874 ft 524 kts 122°
2026-05-03 23:16 61.01432 -10.05640 34876 ft 526 kts 130°
2026-05-03 23:17 60.96382 -9.94930 34884 ft 524 kts 140°
2026-05-03 23:17 60.90658 -9.85807 34888 ft 522 kts 147°
2026-05-03 23:18 60.84810 -9.77188 34902 ft 523 kts 146°
2026-05-03 23:18 60.78951 -9.68459 34886 ft 522 kts 146°
2026-05-03 23:19 60.73094 -9.59724 34888 ft 522 kts 145°
2026-05-03 23:19 60.67245 -9.51030 34904 ft 522 kts 145°
2026-05-03 23:20 60.61384 -9.42380 34904 ft 522 kts 146°
2026-05-03 23:20 60.55295 -9.34588 34873 ft 519 kts 152°
2026-05-03 23:21 60.49144 -9.27095 34885 ft 519 kts 152°
2026-05-03 23:21 60.42995 -9.19609 34912 ft 517 kts 152°
2026-05-03 23:22 60.33779 -9.08429 34911 ft 519 kts 152°
2026-05-03 23:22 60.27620 -9.00992 34908 ft 518 kts 151°
2026-05-03 23:23 60.21481 -8.93611 34917 ft 518 kts 151°
2026-05-03 23:23 60.15299 -8.86202 34914 ft 517 kts 151°
2026-05-03 23:24 60.09145 -8.78874 34917 ft 516 kts 151°
2026-05-03 23:24 60.03032 -8.71618 34919 ft 517 kts 151°
2026-05-03 23:25 59.96848 -8.64311 34925 ft 517 kts 150°
2026-05-03 23:25 59.90704 -8.57072 34927 ft 514 kts 151°
2026-05-03 23:26 59.84550 -8.49870 34920 ft 515 kts 151°
2026-05-03 23:26 59.78398 -8.42692 34932 ft 514 kts 151°
2026-05-03 23:27 59.72244 -8.35551 34939 ft 514 kts 151°
2026-05-03 23:27 59.66141 -8.28494 34937 ft 513 kts 152°
2026-05-03 23:28 59.59974 -8.21398 34939 ft 513 kts 152°
2026-05-03 23:28 59.53824 -8.14351 34941 ft 513 kts 152°
2026-05-03 23:29 59.47708 -8.07365 34941 ft 513 kts 151°
2026-05-03 23:29 59.41539 -8.00361 34944 ft 512 kts 151°
2026-05-03 23:30 59.35412 -7.93427 34962 ft 512 kts 152°
2026-05-03 23:30 59.29298 -7.86537 34960 ft 511 kts 152°
2026-05-03 23:31 59.23160 -7.79657 34974 ft 511 kts 151°
2026-05-03 23:31 59.16983 -7.72747 34977 ft 511 kts 151°
2026-05-03 23:32 59.10856 -7.65925 34972 ft 511 kts 151°
2026-05-03 23:32 59.04702 -7.59099 34975 ft 511 kts 151°
2026-05-03 23:33 58.98561 -7.52327 34981 ft 511 kts 150°
2026-05-03 23:33 58.92438 -7.45599 34985 ft 509 kts 151°
2026-05-03 23:34 58.86314 -7.38887 34988 ft 508 kts 151°
2026-05-03 23:34 58.80168 -7.32188 34991 ft 507 kts 152°
2026-05-03 23:35 58.74052 -7.25546 34994 ft 508 kts 152°
2026-05-03 23:35 58.67917 -7.18916 35001 ft 506 kts 152°
2026-05-03 23:36 58.61795 -7.12325 34999 ft 507 kts 151°
2026-05-03 23:36 58.55671 -7.05753 35005 ft 507 kts 151°
2026-05-03 23:37 58.49548 -6.99212 35011 ft 506 kts 151°
2026-05-03 23:37 58.43459 -6.92738 35007 ft 505 kts 151°
2026-05-03 23:38 58.37323 -6.86226 35012 ft 505 kts 151°
2026-05-03 23:38 58.31219 -6.79793 35010 ft 504 kts 151°
2026-05-03 23:39 58.25124 -6.73391 35018 ft 503 kts 151°
2026-05-03 23:39 58.19015 -6.66987 35020 ft 503 kts 150°
2026-05-03 23:40 58.12917 -6.60622 35015 ft 502 kts 150°
2026-05-03 23:40 58.06804 -6.54278 35012 ft 502 kts 150°
2026-05-03 23:41 58.00725 -6.47985 35029 ft 500 kts 150°
2026-05-03 23:41 57.94613 -6.41688 35026 ft 501 kts 150°
2026-05-03 23:42 57.88545 -6.35454 35026 ft 501 kts 150°
2026-05-03 23:42 57.82434 -6.29200 35023 ft 500 kts 152°
2026-05-03 23:43 57.76357 -6.23017 35029 ft 499 kts 151°
2026-05-03 23:43 57.70282 -6.16858 35028 ft 498 kts 151°
2026-05-03 23:44 57.64207 -6.10711 35023 ft 499 kts 151°
2026-05-03 23:44 57.58104 -6.04564 35018 ft 498 kts 151°
2026-05-03 23:45 57.52054 -5.98491 35011 ft 497 kts 150°
2026-05-03 23:45 57.45974 -5.92410 34998 ft 497 kts 151°
2026-05-03 23:46 57.39921 -5.86390 35004 ft 496 kts 151°
2026-05-03 23:46 57.33851 -5.80370 35001 ft 495 kts 150°
2026-05-03 23:47 57.27786 -5.74376 35001 ft 495 kts 150°
2026-05-03 23:47 57.21762 -5.68445 34999 ft 496 kts 150°
2026-05-03 23:48 57.15667 -5.62471 35002 ft 495 kts 150°
2026-05-03 23:48 57.09626 -5.56569 35000 ft 494 kts 150°
2026-05-03 23:49 57.03588 -5.50692 35002 ft 494 kts 150°
2026-05-03 23:49 56.97503 -5.44788 34992 ft 494 kts 150°
2026-05-03 23:50 56.92482 -5.39938 34989 ft 493 kts 150°
2026-05-03 23:50 56.85371 -5.33081 34985 ft 495 kts 151°
2026-05-03 23:51 56.79321 -5.27282 34990 ft 494 kts 151°
2026-05-03 23:51 56.73255 -5.21483 34997 ft 494 kts 151°
2026-05-03 23:52 56.67162 -5.15686 34989 ft 494 kts 151°
2026-05-03 23:52 56.61118 -5.09957 34983 ft 494 kts 150°
2026-05-03 23:53 56.55042 -5.04207 34980 ft 494 kts 150°
2026-05-03 23:53 56.48964 -4.98480 34986 ft 493 kts 150°
2026-05-03 23:54 56.42927 -4.92819 34988 ft 490 kts 150°
2026-05-03 23:54 56.36886 -4.87167 34989 ft 491 kts 150°
2026-05-03 23:55 56.30841 -4.81535 34988 ft 490 kts 150°
2026-05-03 23:55 56.24847 -4.75970 34987 ft 488 kts 150°
2026-05-03 23:56 56.18807 -4.70384 34987 ft 486 kts 150°
2026-05-03 23:56 56.12819 -4.64865 34987 ft 485 kts 150°
2026-05-03 23:57 56.06838 -4.59370 34988 ft 485 kts 150°
2026-05-03 23:57 56.00864 -4.53899 34989 ft 484 kts 150°
2026-05-03 23:58 55.94971 -4.48526 34993 ft 483 kts 150°
2026-05-03 23:58 55.89024 -4.43119 34994 ft 482 kts 150°
2026-05-03 23:59 55.83057 -4.37712 34996 ft 480 kts 149°
2026-05-03 23:59 55.77153 -4.32384 34998 ft 480 kts 150°
2026-05-04 00:00 55.71229 -4.27049 34995 ft 478 kts 150°
2026-05-04 00:00 55.65314 -4.21740 34991 ft 477 kts 150°
2026-05-04 00:01 55.59415 -4.16467 34987 ft 475 kts 151°
2026-05-04 00:01 55.53532 -4.11226 34982 ft 474 kts 150°
2026-05-04 00:02 55.47705 -4.05902 34983 ft 473 kts 148°
2026-05-04 00:02 55.41960 -4.00332 34983 ft 472 kts 148°
2026-05-04 00:03 55.36259 -3.94819 34982 ft 469 kts 148°
2026-05-04 00:03 55.30531 -3.89288 34988 ft 468 kts 148°
2026-05-04 00:04 55.24867 -3.83842 34993 ft 466 kts 148°
2026-05-04 00:04 55.19217 -3.78437 34985 ft 464 kts 148°
2026-05-04 00:05 55.13561 -3.73043 34995 ft 462 kts 148°
2026-05-04 00:05 55.07947 -3.67696 35001 ft 462 kts 148°
2026-05-04 00:06 55.02306 -3.62345 35021 ft 460 kts 149°
2026-05-04 00:06 54.96697 -3.57043 35002 ft 460 kts 149°
2026-05-04 00:07 54.91112 -3.51786 34988 ft 459 kts 149°
2026-05-04 00:07 54.85510 -3.46523 34997 ft 458 kts 149°
2026-05-04 00:08 54.79924 -3.41286 34968 ft 458 kts 149°
2026-05-04 00:08 54.74316 -3.36051 34978 ft 457 kts 149°
2026-05-04 00:09 54.68595 -3.31360 34971 ft 456 kts 155°
2026-05-04 00:09 54.62795 -3.27018 34972 ft 455 kts 155°
2026-05-04 00:10 54.56985 -3.22674 34968 ft 455 kts 155°
2026-05-04 00:10 54.51226 -3.18370 34943 ft 453 kts 155°
2026-05-04 00:11 54.45475 -3.14087 34953 ft 451 kts 155°
2026-05-04 00:11 54.39720 -3.09812 34943 ft 451 kts 156°
2026-05-04 00:12 54.34024 -3.05594 34956 ft 449 kts 156°
2026-05-04 00:12 54.28294 -3.01367 34964 ft 448 kts 156°
2026-05-04 00:13 54.22525 -2.97344 34980 ft 447 kts 160°
2026-05-04 00:13 54.16642 -2.93964 34981 ft 447 kts 161°
2026-05-04 00:14 54.10764 -2.90591 34987 ft 446 kts 161°
2026-05-04 00:14 54.04932 -2.87250 34988 ft 445 kts 161°
2026-05-04 00:15 53.99066 -2.83902 34986 ft 444 kts 161°
2026-05-04 00:15 53.93234 -2.80583 34980 ft 443 kts 161°
2026-05-04 00:16 53.87368 -2.77252 34987 ft 443 kts 161°
2026-05-04 00:16 53.81541 -2.73954 34993 ft 443 kts 161°
2026-05-04 00:17 53.75703 -2.70659 34986 ft 442 kts 161°
2026-05-04 00:17 53.69898 -2.67391 34990 ft 441 kts 162°
2026-05-04 00:18 53.64079 -2.64126 34986 ft 440 kts 162°
2026-05-04 00:18 53.58290 -2.60887 34986 ft 440 kts 162°
2026-05-04 00:19 53.52511 -2.57662 34989 ft 440 kts 162°
2026-05-04 00:19 53.46711 -2.54435 34991 ft 439 kts 162°
2026-05-04 00:20 53.40929 -2.51227 34989 ft 438 kts 162°
2026-05-04 00:20 53.35165 -2.48039 34984 ft 437 kts 162°
2026-05-04 00:21 53.29453 -2.44888 34987 ft 435 kts 162°
2026-05-04 00:21 53.23693 -2.41717 34988 ft 435 kts 162°
2026-05-04 00:22 53.17968 -2.38573 34981 ft 435 kts 162°
2026-05-04 00:22 53.12265 -2.35451 34978 ft 435 kts 162°
2026-05-04 00:23 53.06527 -2.32212 34970 ft 435 kts 160°
2026-05-04 00:23 53.01015 -2.28083 34972 ft 435 kts 153°
2026-05-04 00:24 52.95834 -2.22955 34969 ft 435 kts 148°
2026-05-04 00:24 52.90741 -2.17606 34969 ft 435 kts 148°
2026-05-04 00:25 52.85645 -2.12277 34965 ft 434 kts 149°
2026-05-04 00:25 52.80698 -2.07119 34925 ft 433 kts 149°
2026-05-04 00:26 52.78156 -2.04476 34444 ft 436 kts 149°
2026-05-04 00:26 52.75561 -2.01783 33635 ft 446 kts 149°
2026-05-04 00:26 52.72942 -1.99067 32967 ft 448 kts 149°
2026-05-04 00:26 52.70305 -1.96336 32403 ft 446 kts 149°
2026-05-04 00:27 52.67702 -1.93645 31749 ft 445 kts 149°
2026-05-04 00:27 52.65099 -1.90956 31029 ft 445 kts 149°
2026-05-04 00:27 52.62481 -1.88256 30205 ft 445 kts 149°
2026-05-04 00:27 52.59885 -1.85585 29350 ft 445 kts 149°
2026-05-04 00:28 52.57279 -1.82908 28650 ft 440 kts 149°
2026-05-04 00:28 52.54704 -1.80266 28075 ft 434 kts 149°
2026-05-04 00:28 52.52139 -1.77633 27447 ft 429 kts 149°
2026-05-04 00:28 52.49649 -1.75078 26819 ft 424 kts 149°
2026-05-04 00:29 52.47168 -1.72539 26179 ft 420 kts 149°
2026-05-04 00:29 52.44709 -1.70026 25557 ft 416 kts 149°
2026-05-04 00:29 52.42274 -1.67545 24941 ft 412 kts 149°
2026-05-04 00:29 52.39852 -1.65077 24333 ft 408 kts 149°
2026-05-04 00:30 52.37478 -1.62659 23725 ft 404 kts 149°
2026-05-04 00:30 52.35113 -1.60254 23107 ft 400 kts 149°
2026-05-04 00:30 52.32765 -1.57869 22491 ft 397 kts 149°
2026-05-04 00:30 52.30430 -1.55503 21857 ft 395 kts 149°
2026-05-04 00:31 52.28108 -1.53154 21251 ft 392 kts 149°
2026-05-04 00:31 52.25815 -1.50835 20744 ft 387 kts 149°
2026-05-04 00:31 52.23555 -1.48539 20261 ft 382 kts 148°
2026-05-04 00:31 52.21384 -1.46088 19779 ft 378 kts 144°
2026-05-04 00:32 52.19373 -1.43458 19642 ft 367 kts 141°
2026-05-04 00:32 52.17437 -1.40757 19670 ft 367 kts 141°
2026-05-04 00:32 52.15493 -1.38044 19695 ft 367 kts 141°
2026-05-04 00:32 52.13573 -1.35365 19723 ft 367 kts 141°
2026-05-04 00:33 52.11631 -1.32657 19841 ft 360 kts 142°
2026-05-04 00:33 52.07958 -1.27538 19265 ft 344 kts 142°
2026-05-04 00:33 52.06141 -1.25016 18878 ft 339 kts 142°
2026-05-04 00:34 52.04373 -1.22564 18501 ft 334 kts 142°
2026-05-04 00:34 52.02619 -1.20131 18133 ft 329 kts 142°
2026-05-04 00:34 52.00894 -1.17742 17699 ft 322 kts 142°
2026-05-04 00:34 51.99214 -1.15417 17066 ft 313 kts 142°
2026-05-04 00:35 51.97593 -1.13179 16497 ft 303 kts 141°
2026-05-04 00:35 51.96012 -1.10997 15869 ft 296 kts 141°
2026-05-04 00:35 51.94479 -1.08882 15532 ft 290 kts 141°
2026-05-04 00:35 51.92957 -1.06782 15241 ft 285 kts 142°
2026-05-04 00:36 51.91470 -1.04734 14998 ft 278 kts 142°
2026-05-04 00:36 51.90018 -1.02736 14743 ft 273 kts 142°
2026-05-04 00:36 51.88540 -1.00710 14211 ft 279 kts 141°
2026-05-04 00:36 51.87092 -0.98725 13929 ft 274 kts 141°
2026-05-04 00:37 51.85686 -0.96651 13639 ft 272 kts 133°
2026-05-04 00:37 51.84612 -0.94168 13350 ft 270 kts 120°
2026-05-04 00:37 51.83764 -0.91473 13055 ft 267 kts 118°
2026-05-04 00:37 51.82960 -0.88786 12726 ft 266 kts 117°
2026-05-04 00:38 51.82159 -0.86110 12387 ft 264 kts 117°
2026-05-04 00:38 51.81366 -0.83481 12058 ft 263 kts 118°
2026-05-04 00:38 51.80566 -0.80843 11730 ft 262 kts 118°
2026-05-04 00:38 51.79763 -0.78213 11396 ft 261 kts 118°
2026-05-04 00:39 51.78952 -0.75567 11063 ft 259 kts 118°
2026-05-04 00:39 51.78154 -0.72962 10739 ft 258 kts 118°
2026-05-04 00:39 51.77355 -0.70362 10403 ft 257 kts 118°
2026-05-04 00:39 51.76570 -0.67813 10067 ft 256 kts 118°
2026-05-04 00:40 51.75776 -0.65239 9733 ft 255 kts 118°
2026-05-04 00:40 51.74984 -0.62675 9412 ft 254 kts 118°
2026-05-04 00:40 51.74208 -0.60165 9081 ft 253 kts 118°
2026-05-04 00:40 51.73423 -0.57626 8760 ft 251 kts 118°
2026-05-04 00:41 51.72599 -0.55149 8442 ft 250 kts 123°
2026-05-04 00:41 51.71628 -0.52853 8108 ft 248 kts 128°
2026-05-04 00:41 51.70608 -0.50648 7749 ft 246 kts 128°
2026-05-04 00:41 51.69581 -0.48452 7465 ft 245 kts 128°
2026-05-04 00:42 51.68555 -0.46257 7081 ft 244 kts 128°
2026-05-04 00:42 51.67556 -0.44119 6998 ft 233 kts 128°
2026-05-04 00:42 51.66590 -0.42045 6995 ft 229 kts 128°
2026-05-04 00:42 51.65644 -0.40019 6991 ft 226 kts 128°
2026-05-04 00:43 51.64638 -0.37872 7001 ft 256 kts 128°
2026-05-04 00:43 51.63549 -0.35549 6998 ft 264 kts 128°
2026-05-04 00:43 51.62434 -0.33163 6994 ft 266 kts 128°
2026-05-04 00:43 51.61326 -0.30801 6986 ft 266 kts 129°
2026-05-04 00:44 51.60188 -0.28432 6958 ft 265 kts 129°
2026-05-04 00:44 51.59057 -0.26103 6722 ft 266 kts 129°
2026-05-04 00:44 51.57926 -0.23774 6412 ft 263 kts 129°
2026-05-04 00:44 51.56811 -0.21459 6049 ft 262 kts 128°
2026-05-04 00:45 51.55708 -0.19137 5684 ft 261 kts 128°
2026-05-04 00:45 51.54609 -0.16817 5331 ft 259 kts 128°
2026-05-04 00:45 51.53532 -0.14551 5053 ft 255 kts 129°
2026-05-04 00:45 51.52243 -0.12684 4747 ft 251 kts 149°
2026-05-04 00:46 51.50795 -0.11056 4508 ft 255 kts 136°
2026-05-04 00:46 51.49620 -0.08905 4498 ft 257 kts 129°
2026-05-04 00:46 51.48532 -0.06643 4498 ft 257 kts 128°
2026-05-04 00:46 51.47451 -0.04345 4496 ft 255 kts 127°
2026-05-04 00:47 51.46550 -0.02018 4475 ft 240 kts 108°
2026-05-04 00:47 51.46428 0.00529 4477 ft 223 kts 79°
2026-05-04 00:47 51.46794 0.02868 4488 ft 216 kts 73°
2026-05-04 00:47 51.47238 0.05124 4482 ft 205 kts 71°
2026-05-04 00:48 51.47712 0.07189 4467 ft 194 kts 58°
2026-05-04 00:48 51.48681 0.08605 4471 ft 192 kts 19°
2026-05-04 00:48 51.49992 0.08741 4483 ft 190 kts 340°
2026-05-04 00:48 51.51045 0.07544 4491 ft 188 kts 304°
2026-05-04 00:49 51.51501 0.05631 4497 ft 188 kts 274°
2026-05-04 00:49 51.51427 0.03527 4503 ft 188 kts 257°
2026-05-04 00:49 51.51077 0.01498 4502 ft 188 kts 252°
2026-05-04 00:49 51.50669 -0.00498 4499 ft 189 kts 251°
2026-05-04 00:50 51.50253 -0.02475 4500 ft 189 kts 251°
2026-05-04 00:50 51.49830 -0.04475 4502 ft 189 kts 251°
2026-05-04 00:50 51.49411 -0.06443 4462 ft 186 kts 251°
2026-05-04 00:50 51.48989 -0.08409 4199 ft 187 kts 251°
2026-05-04 00:51 51.48550 -0.10390 3922 ft 188 kts 251°
2026-05-04 00:51 51.48144 -0.12351 3666 ft 187 kts 257°
2026-05-04 00:51 51.47910 -0.14391 3418 ft 186 kts 265°
2026-05-04 00:51 51.47841 -0.16470 3167 ft 185 kts 271°
2026-05-04 00:52 51.47859 -0.18504 2919 ft 184 kts 272°
2026-05-04 00:52 51.47877 -0.20573 2665 ft 184 kts 271°
2026-05-04 00:52 51.47879 -0.22595 2500 ft 181 kts 270°
2026-05-04 00:52 51.47868 -0.24583 2401 ft 168 kts 270°
2026-05-04 00:53 51.47855 -0.26400 2196 ft 162 kts 270°
2026-05-04 00:53 51.47842 -0.28140 1948 ft 151 kts 271°
2026-05-04 00:53 51.47830 -0.29754 1726 ft 138 kts 271°
2026-05-04 00:53 51.47821 -0.31253 1532 ft 133 kts 271°
2026-05-04 00:54 51.47813 -0.32745 1365 ft 133 kts 271°
2026-05-04 00:54 51.47805 -0.34206 1202 ft 132 kts 271°
2026-05-04 00:54 51.47798 -0.35695 1034 ft 132 kts 271°
2026-05-04 00:54 51.47791 -0.37161 863 ft 131 kts 271°
2026-05-04 00:55 51.47785 -0.38620 687 ft 131 kts 271°
2026-05-04 00:55 51.47779 -0.40056 512 ft 130 kts 271°
2026-05-04 00:55 51.47774 -0.41530 339 ft 131 kts 271°
2026-05-04 00:55 51.47769 -0.42994 167 ft 129 kts 270°
2026-05-04 00:56 51.47766 -0.44399 78 ft 115 kts 270°
2026-05-04 00:56 51.47762 -0.45423 78 ft 70 kts 270°
2026-05-04 00:56 51.47757 -0.46132 78 ft 59 kts 270°
2026-05-04 00:56 51.47732 -0.46601 78 ft 28 kts 252°
2026-05-04 00:57 51.47670 -0.46816 78 ft 13 kts 239°
2026-05-04 00:57 51.47604 -0.46897 78 ft 12 kts 201°
2026-05-04 00:57 51.47572 -0.47014 78 ft 13 kts 278°
2026-05-04 00:57 51.47580 -0.47163 78 ft 13 kts 270°
2026-05-04 00:58 51.47579 -0.47322 78 ft 14 kts 270°
2026-05-04 00:58 51.47580 -0.47486 77 ft 15 kts 271°
2026-05-04 00:58 51.47581 -0.47657 78 ft 15 kts 271°
2026-05-04 00:58 51.47581 -0.47835 78 ft 16 kts 269°
2026-05-04 00:59 51.47580 -0.48018 78 ft 16 kts 270°
2026-05-04 00:59 51.47557 -0.48132 78 ft 9 kts 192°
2026-05-04 00:59 51.47495 -0.48161 77 ft 10 kts 248°
2026-05-04 00:59 51.47487 -0.48287 78 ft 12 kts 268°
2026-05-04 01:00 51.47432 -0.48361 78 ft 12 kts 180°
2026-05-04 01:00 51.47337 -0.48360 78 ft 14 kts 180°
2026-05-04 01:00 51.47231 -0.48360 77 ft 15 kts 180°
2026-05-04 01:00 51.47120 -0.48359 77 ft 16 kts 179°
2026-05-04 01:01 51.47007 -0.48358 78 ft 11 kts 178°
2026-05-04 01:01 51.46976 -0.48304 78 ft 4 kts 79°
2026-05-04 01:01 51.46982 -0.48254 78 ft 2 kts 89°
2026-05-04 01:01 51.46981 -0.48223 78 ft 2 kts 91°
2026-05-04 01:02 51.46981 -0.48211 77 ft 0 kts 91°